OBJECT X, 62398

Orbit data source: Space-Track

You're viewing an Uncataloged Satellite

Recently launched and/or uncataloged satellites may have evolving metadata. Metadata may include but not limited to: Owner, Maufacturer, Bus, Motor, and Mission.

OBJECT X, 62398 is a satellite in LEO that was launched on Sat, 21 Dec 2024 UTC via an FALCON 9 launch vehicle from the Air Force Western Test Range (AFWTR). Unknown objects in Earth's orbit typically refer to objects detected orbiting the Earth but have not yet been identified or cataloged. These objects could be anything from previously untracked satellites, spent rocket stages, debris from satellite collisions, or even natural meteoroids temporarily captured by Earth's gravity.

Loading next visibility...
Identifier
62398, 2024-247X
Orbit
LEO
Country
Flag of TBDTBD
Related business
None
Manufacturer
Unknown
Mission
Operational Commercial Communications
Bus & Motor
Unknown
Mass
Unknown
Launch date (UTC)
2024-12-21 (1 year ago)
Launch vehicle
FALCON 9
Launch site
Air Force Western Test Range (AFWTR)
Object type
Unknown
Shape & HBR
Box, 0.0 m
Radar Cross Section
0.004 m², Small (<0.1 m²)

Expand to show TLE details & history
Last TLE update: 16 hours ago

TLE from 16 hours ago
0 OBJECT X
1 62398U 24247X   26036.57969179  .00315935  00000-0  23155-2 0  9991
2 62398  44.9915 242.8003 0015287 237.1910 122.7517 15.71345555 63417
Epoch: 2026-02-05T13:54Z
TLE epoch observation values (Epoch: 2026-02-05T13:54:45.370Z)
Latitude
-0.00008°
Longitude
-101.61871°
Altitude
360.627 km
Speed
7.691 km/s
True Right ascension
16h 11m 12s
True Declination
0° 00' 00"
Sunlit
Object was in daylight at epoch
Visualization orbit readout
Latitude
Unknown
Longitude
Unknown
Altitude
Unknown
Speed
Unknown
Apparent Right ascension
Unknown
Apparent Declination
Unknown
Sunlit
N/A
Visualization observer readout
Local Sidereal Time
08:21:12
Azimuth
Unknown
Elevation
Unknown
Doppler factor
Unknown
Orbital elements
Apogee altitude
366.987 km
Perigee altitude
346.396 km
Semi-major axis
6,734.829 km
Eccentricity
0.00153
Inclination
44.9915°
RAAN
242.8003°
Arg. of periapsis
237.191°
True anomaly
122.89887°
Mean anomaly
122.7517°
Eccentric anomaly
122.8253°
Mean motion
3.92693 °/min
Orbital period
91.67 mins
BSTAR
0.0023155
Loading maneuver chart data...
Computing Atmospheric mass density...
Loading historical data...
Loading historical data...
Loading historical data...
Loading historical data...
Loading historical data...
Loading historical data...
Loading historical data...

Documentation

Showing up to 5 results
|